Wind_Speed
29 31 29 31 30 29 32 31 31 32 35 39 42 45 47 51 55 57 63 62 60 56 57 57 59 64 65 55 50 49 49 49 52 51 50 48 46 44 40 40 38 39 37
32 30 28 34 32 30 30 29 31 33 37 41 45 49 51 54 58 57 60 62 54 55 55 57 61 67 57 51 49 47 50 54 55 51 47 49 49 48 46 43 40 38 34
36 35 33 32 31 30 32 32 33 37 42 44 48 50 54 58 54 62 56 53 51 52 54 60 66 62 55 52 50 51 55 56 52 49 49 48 48 47 43 40 35 33 34
34 37 38 30 29 30 30 32 37 40 42 47 50 54 50 50 48 53 52 49 50 51 56 64 62 57 53 49 54 57 56 54 54 53 51 51 48 43 40 34 32 25 30
48 46 33 31 28 30 31 34 38 41 40 44 40 48 49 46 53 63 58 46 50 55 62 61 57 53 50 46 52 54 53 51 51 51 49 47 43 39 36 31 28 23 25
53 60 40 34 25 28 26 32 35 37 40 42 42 48 52 52 54 46 38 46 53 59 60 56 52 51 46 49 51 52 50 51 50 48 47 43 40 35 32 29 28 25 18
43 41 35 33 30 22 22 27 31 37 39 39 41 43 45 37 37 40 45 51 57 60 57 54 52 45 46 50 52 52 52 50 49 47 44 39 37 31 27 23 22 18 13
41 39 38 18 14 17 22 28 34 39 41 41 43 42 39 36 41 44 49 57 60 59 55 51 44 45 48 51 54 55 52 50 47 44 38 35 33 26 19 19 18 12 10
39 37 34 37 29 24 28 32 37 38 38 46 44 38 38 38 43 47 54 60 63 60 53 45 45 47 51 53 57 55 54 45 41 37 33 33 27 19 16 16 12 9 6
37 37 35 35 32 31 33 36 36 35 39 44 34 34 36 41 48 51 55 60 59 50 46 45 48 48 51 56 56 56 48 42 38 31 32 26 17 14 13 11 8 5 5
36 35 32 31 31 32 34 35 35 35 39 36 36 36 39 43 50 53 56 60 54 48 45 45 49 53 56 56 56 50 41 36 31 31 22 12 10 10 8 6 5 4 5
30 29 26 26 27 29 33 34 36 37 37 37 38 39 43 48 53 57 60 60 51 48 49 50 52 54 55 54 51 39 32 28 25 17 9 7 3 3 3 4 4 4 9
29 27 22 23 25 29 31 32 35 37 35 38 38 42 46 53 57 60 63 57 51 50 50 52 54 54 53 51 36 29 25 22 16 8 4 3 3 3 4 5 9 13 15
27 24 23 24 26 27 28 31 34 33 35 39 40 44 48 55 58 64 61 52 51 50 52 55 55 53 50 33 28 23 21 16 9 3 2 4 5 6 10 12 14 16 23
26 25 25 24 23 24 28 31 33 34 36 39 40 45 51 56 61 63 55 51 50 51 54 55 54 48 34 28 22 19 16 10 6 4 6 6 7 13 15 15 17 24 28
24 21 22 21 18 24 29 32 34 34 37 37 41 47 51 56 64 57 51 51 52 55 56 53 43 32 28 21 19 13 8 8 9 9 8 9 15 17 16 17 25 29 30
16 15 19 17 19 26 29 31 31 32 34 37 41 47 51 61 59 55 52 54 56 57 49 38 33 29 21 16 12 8 7 11 11 10 10 16 19 17 20 27 30 30 32
11 11 17 17 22 26 29 30 28 31 35 38 43 49 54 62 60 53 55 57 55 48 43 35 30 22 15 14 10 6 7 8 11 13 15 20 19 25 28 29 30 30 34
9 10 14 17 22 24 25 25 29 31 34 38 45 49 57 59 54 54 55 50 50 44 37 27 21 15 13 12 11 9 8 13 16 16 21 22 27 31 34 32 31 32 33
8 10 14 16 21 23 23 25 28 30 34 39 45 50 57 56 52 52 46 47 39 35 28 20 17 15 14 12 13 14 17 19 18 23 24 27 34 38 36 34 31 29 27
8 11 13 14 17 18 21 24 27 31 33 40 45 50 56 51 48 42 42 38 37 31 23 20 18 19 21 22 21 21 21 22 24 25 26 34 38 37 33 28 29 27 29
8 11 14 13 18 21 22 24 27 29 33 40 45 50 54 44 41 40 36 36 34 26 24 21 20 21 21 23 22 23 24 24 25 25 33 35 38 34 31 28 29 31 30
8 11 17 19 16 16 20 24 26 29 35 41 45 49 47 43 37 33 31 32 28 26 23 22 21 21 22 22 22 23 25 25 25 30 33 37 36 31 28 25 28 28 25
6 17 13 9 12 16 20 22 26 30 36 41 43 49 40 33 35 30 32 28 24 21 21 21 21 20 20 21 23 23 24 25 28 31 34 36 33 30 26 27 28 29 25
6 13 9 12 13 16 19 23 26 31 34 38 42 44 36 31 32 28 30 26 20 18 19 19 22 22 21 22 23 23 26 29 29 32 33 34 32 30 26 26 25 26 24
6 10 10 11 12 15 19 23 28 30 32 37 40 36 28 32 33 29 28 26 20 18 17 18 19 20 20 20 21 24 28 27 31 32 32 31 30 27 21 25 27 25 26
Wind_Direction
304 295 285 284 287 291 293 296 297 301 308 309 310 309 310 311 312 312 314 313 312 312 314 314 314 313 314 314 315 315 313 314 313 313 312 312 310 308 304 298 295 293 279
304 297 278 276 278 281 288 295 297 301 306 308 310 312 310 311 309 316 317 312 308 313 314 313 313 313 313 316 318 318 316 315 315 317 315 312 308 303 302 298 303 293 290
291 287 280 276 277 284 290 292 297 302 308 309 309 309 308 310 311 316 313 313 313 313 314 313 313 312 314 317 316 318 316 315 315 315 315 311 308 308 306 301 295 297 284
274 276 270 269 272 278 285 292 299 302 304 306 307 310 312 314 312 313 310 313 312 314 314 311 313 312 314 318 320 319 315 314 315 316 315 308 308 305 303 299 295 299 284
285 319 245 251 261 275 285 292 296 302 308 315 315 318 314 311 308 311 306 313 314 316 313 314 314 313 313 315 316 315 314 313 312 310 307 306 304 302 300 298 296 287 284
312 308 333 270 264 269 283 294 300 308 309 312 316 322 319 305 301 313 318 315 316 315 315 316 315 314 311 315 315 315 313 309 311 309 307 306 303 300 298 291 290 287 274
309 319 322 318 274 267 289 300 302 310 312 316 326 329 330 329 325 325 321 320 320 320 319 316 312 309 311 314 314 316 314 312 312 310 307 305 306 298 297 292 289 275 276
304 310 316 320 303 307 313 311 313 311 314 312 318 321 321 323 325 323 323 326 324 322 319 316 313 313 314 314 315 317 318 317 312 309 309 306 306 298 287 289 287 271 268
301 302 303 315 325 318 316 318 315 315 319 317 315 310 315 323 321 324 329 329 327 320 316 318 315 317 317 316 316 318 319 316 310 310 308 307 303 292 282 289 279 265 256
298 302 298 300 309 310 316 317 316 319 325 325 314 314 323 323 328 326 327 326 325 322 320 318 319 320 318 317 319 321 322 316 314 310 309 305 292 279 281 284 254 236 237
299 303 298 296 300 308 316 318 318 319 327 323 323 320 323 324 326 326 326 329 326 323 319 321 321 320 319 321 321 325 320 318 318 314 310 299 293 281 271 262 223 241 238
302 306 298 297 301 311 313 314 317 319 327 322 323 322 324 327 326 328 329 329 327 326 325 325 322 322 323 322 325 322 323 324 323 324 323 315 283 316 179 190 212 173 142
301 306 299 300 307 307 310 315 316 324 324 323 322 324 324 327 328 330 331 330 330 330 325 323 322 324 322 324 323 325 328 328 327 333 350 24 26 114 151 145 137 133 130
290 294 301 307 308 306 310 313 320 323 324 326 322 324 327 329 331 332 332 332 330 327 326 325 325 323 324 326 327 330 331 334 343 358 74 56 63 118 128 133 133 129 129
281 286 298 303 304 307 308 315 326 320 325 324 321 328 329 331 332 332 334 332 330 330 327 325 325 327 331 331 335 337 337 358 30 92 95 90 104 126 130 130 130 129 130
279 288 292 295 305 310 311 325 325 320 324 323 328 330 330 333 333 335 334 332 332 330 328 329 332 336 336 338 342 345 6 57 86 92 93 111 127 127 126 129 130 131 130
284 292 292 299 302 308 317 323 321 322 327 328 331 331 335 336 339 338 335 335 332 331 332 334 336 338 340 347 357 6 76 85 91 96 106 122 126 122 124 126 126 127 132
290 289 290 293 301 315 324 322 323 330 331 331 332 337 338 340 340 338 336 335 334 334 332 331 339 343 354 3 19 93 99 76 103 109 112 125 119 121 122 123 123 128 137
290 283 289 291 309 324 326 324 330 333 334 334 338 341 342 342 340 338 338 338 336 336 339 344 350 2 21 48 64 95 76 103 116 116 123 123 122 121 116 115 118 129 137
287 284 294 311 329 326 320 326 332 336 337 338 342 343 345 342 342 340 343 343 347 355 2 11 19 31 53 54 76 87 98 110 112 120 122 121 123 120 115 111 112 120 127
287 297 313 334 338 336 328 333 337 339 338 345 348 346 344 343 343 346 349 356 1 6 20 34 46 60 72 78 86 95 100 109 115 118 119 124 127 122 119 106 116 123 119
307 317 326 316 326 317 327 339 338 336 344 350 349 345 344 346 350 352 357 7 11 31 39 50 66 69 79 82 91 100 104 109 114 117 125 129 130 123 116 108 118 121 121
333 334 327 320 313 315 338 338 332 344 350 351 346 343 347 351 354 1 6 14 28 39 50 62 69 72 75 77 92 99 105 109 114 122 126 131 132 129 118 102 117 121 121
305 339 332 342 336 340 339 336 344 348 351 348 346 346 352 359 358 8 17 18 32 45 60 69 73 76 74 79 90 98 104 108 116 124 130 130 129 124 117 110 120 117 113
326 324 318 329 336 342 346 347 350 356 351 349 350 349 359 3 7 16 18 21 35 50 57 74 77 80 84 86 90 98 108 111 118 124 128 132 133 128 117 108 115 115 113
297 320 309 320 339 348 353 354 2 357 355 354 354 360 10 11 18 21 20 23 37 56 72 79 86 81 84 91 93 100 110 113 122 127 130 133 135 133 128 109 118 117 117
Height
5811 5808 5806 5800 5796 5793 5788 5785 5782 5779 5776 5772 5767 5763 5756 5749 5743 5737 5728 5718 5710 5702 5694 5685 5675 5665 5656 5646 5638 5630 5622 5613 5606 5601 5592 5586 5580 5574 5569 5564 5559 5556 5554
5803 5799 5795 5791 5788 5786 5783 5781 5778 5774 5769 5765 5761 5755 5749 5742 5733 5725 5716 5706 5698 5690 5682 5672 5663 5653 5644 5634 5625 5618 5611 5603 5594 5587 5581 5574 5566 5560 5557 5552 5547 5543 5542
5791 5788 5783 5779 5778 5778 5776 5773 5771 5768 5764 5759 5753 5746 5738 5730 5721 5712 5704 5696 5688 5680 5671 5661 5651 5641 5632 5622 5614 5604 5597 5590 5581 5575 5569 5561 5555 5548 5544 5540 5536 5533 5530
5768 5770 5769 5770 5771 5772 5770 5768 5765 5761 5754 5748 5742 5734 5726 5718 5711 5702 5694 5688 5680 5670 5660 5649 5639 5628 5619 5610 5602 5593 5585 5576 5568 5561 5556 5549 5543 5537 5533 5529 5526 5523 5521
5733 5738 5736 5757 5761 5762 5762 5759 5757 5753 5747 5740 5732 5726 5717 5709 5700 5693 5684 5678 5669 5659 5648 5636 5626 5617 5608 5600 5592 5584 5575 5566 5558 5551 5545 5538 5532 5527 5522 5519 5517 5514 5513
5764 5760 5755 5749 5750 5753 5752 5751 5748 5743 5738 5732 5724 5716 5706 5697 5689 5682 5675 5669 5660 5649 5636 5624 5614 5605 5598 5590 5581 5573 5563 5555 5548 5540 5534 5527 5521 5516 5512 5510 5508 5507 5506
5762 5757 5754 5749 5745 5745 5744 5743 5740 5735 5730 5722 5715 5705 5697 5688 5681 5674 5667 5658 5647 5633 5622 5612 5604 5595 5588 5580 5571 5561 5552 5543 5534 5528 5522 5516 5512 5507 5504 5502 5501 5500 5500
5759 5754 5750 5744 5742 5740 5739 5735 5731 5727 5720 5713 5705 5698 5689 5681 5674 5667 5658 5646 5633 5621 5610 5601 5593 5585 5577 5569 5559 5548 5539 5530 5521 5515 5511 5507 5502 5498 5497 5495 5495 5495 5496
5753 5749 5747 5744 5740 5736 5732 5728 5724 5718 5710 5704 5696 5691 5682 5674 5667 5658 5647 5635 5621 5610 5599 5590 5582 5573 5565 5556 5547 5537 5528 5519 5511 5505 5501 5497 5494 5492 5491 5490 5490 5491 5492
5745 5743 5740 5738 5733 5729 5725 5721 5716 5709 5703 5695 5688 5681 5674 5667 5658 5649 5638 5626 5613 5600 5590 5580 5572 5562 5553 5544 5534 5524 5515 5507 5501 5496 5493 5489 5487 5486 5486 5486 5488 5489 5490
5738 5736 5733 5730 5727 5723 5719 5714 5708 5702 5696 5689 5681 5675 5668 5659 5650 5640 5628 5615 5602 5591 5581 5571 5562 5553 5543 5532 5522 5513 5506 5499 5493 5489 5484 5483 5482 5483 5483 5485 5486 5488 5489
5730 5727 5724 5721 5719 5717 5712 5707 5701 5695 5689 5682 5674 5668 5661 5651 5642 5630 5617 5604 5591 5579 5571 5561 5552 5542 5532 5521 5513 5505 5499 5493 5489 5484 5481 5481 5480 5481 5482 5484 5485 5487 5489
5721 5719 5716 5714 5713 5710 5706 5700 5696 5689 5682 5675 5669 5662 5653 5644 5632 5620 5606 5591 5580 5570 5562 5552 5542 5533 5522 5513 5506 5499 5494 5489 5486 5483 5481 5481 5480 5481 5483 5484 5486 5489 5492
5713 5714 5712 5710 5707 5703 5700 5695 5690 5684 5676 5670 5663 5656 5647 5635 5623 5610 5595 5582 5572 5562 5552 5542 5532 5523 5514 5507 5500 5495 5490 5486 5484 5482 5482 5482 5482 5483 5484 5486 5489 5492 5496
5707 5708 5707 5705 5702 5699 5695 5689 5684 5678 5670 5665 5658 5649 5639 5628 5616 5602 5587 5576 5565 5553 5543 5533 5523 5513 5506 5501 5496 5492 5488 5485 5483 5483 5483 5484 5484 5486 5488 5490 5493 5496 5501
5700 5702 5702 5700 5697 5694 5689 5684 5678 5672 5666 5660 5652 5643 5633 5621 5607 5591 5579 5568 5556 5545 5534 5524 5514 5507 5502 5497 5493 5489 5488 5486 5485 5485 5486 5487 5488 5490 5492 5494 5498 5503 5508
5696 5696 5697 5694 5692 5689 5685 5679 5673 5667 5661 5654 5646 5637 5626 5614 5597 5583 5572 5559 5548 5537 5526 5518 5511 5504 5499 5495 5492 5490 5489 5489 5489 5489 5489 5491 5493 5495 5497 5501 5505 5510 5515
5693 5693 5692 5690 5687 5684 5679 5673 5668 5662 5656 5650 5642 5631 5620 5604 5590 5577 5566 5553 5541 5530 5521 5514 5508 5502 5498 5494 5491 5491 5492 5492 5492 5493 5495 5497 5499 5502 5505 5509 5512 5516 5522
5689 5689 5688 5686 5683 5679 5673 5669 5664 5658 5653 5645 5636 5625 5612 5598 5586 5573 5561 5549 5537 5526 5516 5510 5505 5501 5498 5495 5494 5494 5494 5495 5497 5498 5501 5504 5507 5510 5514 5517 5521 5525 5530
5686 5685 5683 5681 5678 5673 5669 5666 5661 5656 5650 5642 5632 5620 5607 5594 5581 5570 5558 5547 5535 5524 5515 5510 5506 5503 5500 5499 5498 5498 5499 5500 5502 5504 5508 5511 5515 5520 5524 5527 5531 5534 5538
5683 5681 5680 5678 5673 5670 5667 5662 5658 5653 5647 5638 5628 5616 5605 5592 5580 5569 5559 5547 5536 5526 5519 5514 5511 5508 5506 5505 5505 5505 5506 5507 5510 5512 5515 5520 5524 5529 5533 5536 5539 5542 5545
5679 5677 5676 5673 5670 5667 5663 5659 5656 5651 5644 5635 5625 5614 5603 5590 5579 5570 5560 5550 5539 5532 5526 5522 5519 5516 5515 5514 5514 5514 5515 5516 5519 5521 5524 5529 5533 5538 5542 5545 5547 5550 5553
5676 5674 5672 5668 5666 5664 5661 5659 5656 5649 5642 5633 5624 5613 5600 5590 5581 5571 5563 5554 5546 5540 5534 5530 5528 5526 5524 5523 5522 5523 5524 5525 5527 5530 5534 5538 5542 5546 5550 5553 5555 5558 5561
5672 5671 5669 5667 5665 5664 5662 5658 5653 5648 5640 5633 5623 5612 5600 5591 5583 5574 5566 5559 5553 5547 5542 5539 5537 5535 5534 5533 5532 5532 5533 5534 5536 5540 5543 5548 5552 5556 5559 5561 5563 5566 5569
5671 5670 5669 5668 5666 5664 5661 5657 5652 5646 5640 5632 5622 5612 5602 5594 5585 5576 5569 5562 5557 5553 5550 5547 5545 5544 5542 5542 5542 5541 5542 5544 5547 5550 5553 5557 5561 5564 5567 5569 5571 5574 5575
5670 5670 5669 5668 5667 5664 5660 5656 5651 5647 5640 5632 5623 5612 5604 5596 5587 5579 5573 5566 5562 5558 5556 5554 5554 5553 5551 5551 5551 5551 5552 5554 5556 5559 5562 5565 5569 5572 5574 5577 5579 5581 5583